Wind_Speed
15 14 13 12 11 11 10 9 8 8 7 6 6 6 6 6 7 9 10 11 13 14 14 15 15 15 15 14 14 14 13 12 12 12 13 13 14 16 17 17 16 15 13
18 17 16 15 14 14 13 12 11 10 9 9 9 8 8 8 8 10 11 13 14 15 16 17 18 19 19 19 19 19 18 17 16 15 15 15 15 16 17 18 18 17 16
21 20 19 18 17 16 16 15 14 13 12 12 11 11 11 10 11 11 12 13 15 16 17 19 20 22 23 23 23 23 22 22 20 19 18 17 17 17 18 19 20 20 19
23 22 21 20 20 19 18 17 17 16 16 15 15 14 13 13 13 14 14 15 17 18 19 20 21 22 24 25 25 26 25 25 24 23 22 21 20 19 19 20 20 21 21
25 24 23 23 22 21 21 21 20 20 19 19 18 17 16 16 16 17 17 18 19 19 20 21 22 23 24 25 25 26 26 26 26 25 24 22 22 21 20 20 21 21 22
26 25 25 25 25 24 24 23 23 23 22 22 20 19 19 19 19 20 21 22 22 21 22 23 23 23 24 25 26 26 26 26 26 25 24 23 22 22 22 21 21 21 23
26 26 27 27 26 27 26 26 26 25 24 24 23 22 22 22 22 23 24 26 25 24 25 24 24 24 24 24 25 26 26 26 26 25 24 23 23 23 23 22 21 21 22
28 27 29 29 29 29 29 27 26 25 24 23 23 23 23 24 25 24 25 27 27 26 27 26 25 25 24 24 25 25 26 26 26 25 25 24 24 23 23 22 22 22 22
30 30 31 32 32 31 31 30 28 26 24 24 24 24 24 25 25 26 26 27 29 28 28 29 27 26 24 23 25 25 25 26 26 25 25 24 24 23 23 22 22 22 22
33 33 32 32 33 32 32 32 30 28 27 26 25 25 25 26 26 27 28 28 29 30 29 29 29 27 26 24 25 26 25 25 26 25 25 25 24 23 23 22 22 23 23
36 36 35 34 34 33 32 32 31 29 27 26 25 25 25 26 27 27 28 29 29 29 29 28 28 29 27 25 25 25 25 25 25 25 25 25 25 24 24 23 23 24 24
37 37 36 36 35 34 32 31 31 30 29 27 26 25 26 27 28 28 28 29 29 28 27 27 28 28 28 26 24 25 25 24 25 25 25 26 25 25 25 24 24 25 26
39 37 37 36 36 35 33 33 32 31 29 27 26 26 26 28 29 29 29 29 29 28 26 26 27 26 26 26 24 24 24 24 24 25 25 25 26 25 25 25 25 26 27
40 39 39 38 36 35 34 34 33 30 29 28 27 26 27 28 28 29 29 28 28 28 26 26 26 26 26 25 24 24 24 24 24 24 25 25 25 25 25 26 26 26 26
39 39 37 35 34 35 35 34 31 28 28 27 26 27 27 28 28 28 28 28 27 25 25 26 25 24 24 24 23 22 23 23 23 24 24 25 25 25 26 26 26 26 26
36 36 36 34 34 34 34 30 25 24 25 25 25 26 26 26 26 26 26 26 25 24 24 25 25 23 23 22 21 22 22 23 23 23 23 24 24 25 26 26 27 27 27
32 33 33 31 29 27 24 22 21 21 22 22 23 23 24 24 24 25 25 24 24 23 22 23 23 22 21 21 21 21 21 22 23 23 23 23 24 25 25 26 26 27 27
23 23 21 20 19 18 17 17 18 20 21 21 22 22 23 23 23 23 24 23 23 23 22 22 22 21 21 21 21 21 21 21 22 22 21 21 21 22 23 24 25 26 26
11 12 12 11 12 14 15 17 18 19 20 21 21 22 22 22 22 23 23 23 22 22 21 22 21 21 20 21 21 21 21 22 22 22 21 20 21 21 21 22 23 24 25
5 7 8 10 12 13 15 16 18 19 21 21 21 22 22 22 22 22 23 22 22 21 21 21 22 21 21 20 21 21 22 23 23 24 23 22 22 22 22 22 23 23 24
6 8 10 11 13 14 16 18 19 20 21 22 22 21 21 21 21 22 22 22 22 22 21 21 20 21 21 19 19 20 21 21 21 22 23 24 24 24 24 25 25 24 25
9 11 12 13 14 16 18 20 21 22 22 22 22 22 21 21 21 21 21 21 22 22 22 21 21 20 20 19 18 18 19 19 19 20 22 25 27 28 28 28 27 27 28
12 13 15 16 17 19 20 22 23 23 23 23 23 22 21 21 21 21 21 21 21 21 21 21 21 20 19 18 17 17 18 17 18 18 20 22 24 26 28 29 29 30 32
14 15 17 18 20 21 22 23 24 24 24 24 23 22 21 20 20 20 20 20 20 20 20 20 20 20 19 19 17 17 17 17 17 18 18 20 22 24 26 28 30 32 33
16 17 19 20 21 22 23 23 23 24 24 24 23 22 21 20 20 20 19 19 19 19 18 18 18 18 18 18 18 18 18 18 18 19 20 20 22 23 25 26 29 31 32
15 16 18 19 20 21 22 22 23 23 23 22 21 21 20 20 20 19 18 17 17 16 16 16 16 16 16 16 16 17 17 18 18 19 20 21 22 23 24 26 28 29 31
Wind_Direction
270 268 266 268 274 282 285 288 295 296 297 299 296 293 288 287 277 271 273 271 270 271 271 271 270 268 268 269 270 272 273 274 275 274 270 264 255 250 246 244 245 249 252
271 269 266 265 267 272 278 280 283 284 285 288 292 292 291 288 285 280 279 278 276 275 276 275 273 271 270 270 271 271 272 272 272 272 272 270 262 255 249 246 245 247 250
273 271 268 265 264 267 272 276 276 278 279 283 286 288 288 288 287 285 286 285 282 281 279 278 276 275 273 272 271 271 271 271 270 269 269 270 266 259 252 249 248 247 248
274 273 270 267 265 265 268 271 272 273 275 277 280 282 284 288 289 288 288 287 287 287 285 283 280 278 277 275 273 271 270 269 268 267 266 266 265 262 257 252 251 249 247
277 275 272 267 265 264 265 267 269 270 271 273 275 277 280 285 287 287 287 286 286 288 288 287 287 284 281 278 275 273 271 268 266 265 264 263 261 260 260 257 253 251 248
276 276 273 268 264 263 263 264 268 268 267 269 271 274 277 282 285 287 286 286 284 285 286 288 288 286 283 280 276 274 271 268 265 263 261 260 259 257 257 258 256 254 249
277 275 273 271 267 263 263 265 267 266 266 267 268 271 275 279 281 284 286 286 283 283 284 285 285 285 283 280 276 273 270 266 263 260 258 257 256 254 254 255 256 254 250
278 278 274 271 269 264 262 263 266 264 263 264 265 269 274 276 278 280 282 284 283 283 283 281 282 282 283 281 278 272 268 263 260 258 256 255 253 253 252 253 253 252 251
279 279 280 274 269 265 261 261 261 261 260 261 262 267 271 275 277 280 280 281 283 282 282 283 281 279 280 281 278 272 266 261 257 256 255 253 251 251 250 251 251 250 250
280 282 285 282 277 272 265 261 260 258 258 259 261 266 270 274 277 279 281 281 281 282 281 282 281 278 278 278 276 270 264 259 255 254 253 250 249 248 248 249 250 249 249
281 282 284 285 280 276 267 260 257 257 256 257 261 266 270 274 277 280 282 281 281 281 282 280 280 279 279 274 272 266 261 257 254 252 251 249 248 247 248 250 250 250 249
282 283 284 283 280 274 268 260 255 253 254 256 260 265 270 275 278 280 281 282 283 282 282 280 279 278 278 274 270 262 258 256 253 251 250 248 247 247 249 251 252 251 250
278 283 283 280 276 269 264 257 253 252 254 257 261 266 270 275 278 280 281 282 283 283 282 280 278 278 276 273 269 260 256 254 252 250 248 247 246 248 250 252 254 254 253
275 280 281 278 273 267 259 254 252 251 253 257 262 266 271 275 278 280 282 282 282 283 282 280 279 278 276 272 267 260 254 251 251 250 248 246 247 248 251 254 256 257 257
275 278 278 272 266 261 255 252 248 249 254 258 263 267 271 274 277 279 281 281 282 282 283 283 281 279 275 268 264 259 253 250 250 250 248 247 248 250 252 254 256 257 259
272 272 271 267 262 255 251 247 244 250 256 260 265 268 270 273 276 278 279 280 281 281 282 283 282 279 272 263 260 256 253 250 249 248 248 249 250 251 253 255 256 257 259
266 266 265 258 254 250 247 244 246 252 258 262 265 267 270 273 275 277 277 279 279 279 280 281 281 277 271 263 259 256 254 251 248 249 250 250 251 253 254 256 256 257 258
259 257 254 249 245 244 244 249 254 258 259 261 264 267 269 271 273 274 274 276 277 277 278 278 279 275 271 264 259 256 255 252 250 249 249 251 253 253 254 256 257 258 258
242 238 236 241 248 252 255 257 259 261 261 263 265 267 268 269 270 271 272 273 274 275 276 275 275 273 271 268 260 256 255 252 251 248 247 250 254 255 256 257 258 259 258
246 244 246 253 258 262 263 264 264 264 265 266 266 267 267 267 268 269 269 271 271 272 272 272 272 273 273 271 261 257 255 254 253 249 247 247 252 255 256 258 259 260 260
269 267 261 261 264 266 268 269 268 266 265 265 266 267 268 269 268 268 268 269 270 270 270 270 271 272 274 274 266 259 257 256 256 254 249 247 250 253 255 258 260 262 264
287 280 275 271 268 266 266 265 266 266 267 267 267 268 268 269 269 269 268 268 270 270 268 268 269 271 272 274 274 269 262 260 260 258 255 253 251 252 254 256 257 261 263
292 285 280 276 274 272 269 268 268 269 268 268 268 268 268 269 270 269 268 269 269 270 270 269 268 269 273 272 274 275 272 270 269 265 262 260 257 258 258 259 259 261 261
296 291 286 282 278 275 273 272 271 270 269 268 268 267 267 267 266 266 265 266 268 269 270 270 270 271 271 273 274 274 271 271 272 273 273 268 265 264 263 263 262 262 264
301 295 289 285 280 277 275 273 270 268 267 266 265 264 262 260 260 260 261 262 265 267 268 270 272 272 273 272 274 276 276 274 274 274 274 275 274 274 272 271 270 269 268
315 305 297 290 285 280 276 273 271 268 266 264 263 260 258 257 256 257 259 260 262 265 266 267 270 273 274 274 275 276 278 279 278 278 277 278 278 277 277 277 276 275 275
Height
5903 5903 5903 5903 5903 5903 5902 5902 5902 5901 5901 5900 5899 5899 5899 5899 5899 5900 5900 5901 5901 5902 5903 5903 5904 5904 5905 5906 5906 5907 5907 5908 5909 5909 5910 5911 5911 5912 5913 5915 5916 5917 5918
5899 5900 5900 5900 5901 5901 5900 5900 5900 5900 5900 5899 5899 5898 5898 5898 5898 5898 5898 5899 5899 5900 5900 5901 5901 5902 5902 5903 5903 5904 5905 5905 5906 5907 5907 5908 5909 5909 5910 5912 5913 5914 5916
5896 5896 5896 5897 5897 5897 5898 5898 5898 5898 5898 5897 5897 5897 5896 5896 5896 5896 5896 5896 5896 5896 5897 5897 5897 5898 5898 5899 5900 5900 5901 5902 5902 5903 5904 5905 5905 5906 5907 5908 5909 5911 5912
5892 5892 5892 5893 5893 5894 5894 5894 5895 5895 5895 5895 5895 5894 5894 5894 5894 5894 5894 5894 5893 5893 5893 5893 5893 5893 5893 5894 5894 5895 5896 5897 5898 5898 5899 5900 5901 5902 5903 5904 5906 5907 5909
5887 5888 5888 5889 5889 5889 5890 5890 5891 5891 5891 5891 5892 5892 5891 5891 5890 5890 5890 5890 5890 5890 5889 5889 5889 5889 5889 5889 5889 5889 5890 5891 5892 5893 5894 5895 5897 5898 5899 5900 5901 5903 5904
5882 5883 5883 5883 5884 5884 5885 5885 5886 5886 5887 5887 5888 5888 5888 5887 5886 5886 5885 5886 5886 5886 5885 5885 5884 5884 5884 5883 5883 5884 5884 5885 5887 5888 5889 5890 5891 5893 5894 5895 5897 5898 5900
5877 5878 5878 5878 5878 5879 5879 5880 5880 5881 5881 5882 5883 5883 5883 5883 5882 5882 5880 5879 5880 5880 5880 5880 5879 5878 5878 5878 5878 5878 5878 5879 5881 5882 5883 5885 5886 5887 5889 5890 5892 5894 5895
5870 5871 5872 5871 5872 5872 5873 5873 5874 5874 5875 5876 5877 5877 5878 5878 5877 5877 5876 5874 5873 5874 5873 5873 5874 5873 5873 5872 5872 5872 5872 5873 5875 5876 5877 5879 5881 5882 5884 5885 5887 5889 5890
5864 5864 5864 5864 5864 5865 5865 5866 5868 5868 5869 5870 5871 5872 5872 5872 5871 5871 5870 5869 5867 5868 5867 5866 5867 5867 5867 5867 5866 5866 5866 5867 5869 5870 5872 5873 5875 5877 5878 5880 5882 5884 5886
5856 5856 5856 5856 5856 5857 5858 5859 5860 5861 5862 5863 5864 5865 5865 5865 5865 5864 5864 5863 5862 5861 5861 5860 5860 5860 5861 5861 5860 5859 5860 5861 5863 5865 5866 5868 5869 5871 5873 5875 5877 5879 5881
5847 5847 5848 5848 5849 5849 5850 5851 5852 5854 5855 5856 5857 5858 5858 5859 5858 5858 5857 5856 5855 5855 5854 5854 5854 5852 5853 5854 5854 5853 5854 5855 5857 5859 5860 5862 5864 5866 5868 5870 5871 5873 5875
5838 5839 5839 5840 5840 5841 5842 5843 5844 5846 5848 5849 5850 5850 5851 5851 5851 5850 5850 5848 5848 5848 5848 5848 5847 5846 5846 5847 5847 5847 5848 5850 5851 5853 5855 5856 5858 5860 5862 5864 5866 5867 5869
5830 5830 5831 5831 5832 5833 5834 5835 5836 5838 5840 5841 5842 5843 5844 5844 5843 5843 5842 5841 5841 5841 5841 5841 5841 5840 5840 5840 5841 5841 5842 5844 5845 5847 5848 5850 5852 5854 5856 5858 5860 5861 5863
5821 5821 5822 5823 5823 5824 5825 5826 5828 5830 5832 5833 5835 5836 5836 5836 5836 5836 5835 5835 5834 5834 5834 5834 5834 5834 5834 5834 5834 5835 5836 5838 5839 5841 5843 5844 5846 5848 5850 5852 5854 5855 5857
5812 5813 5813 5813 5814 5815 5816 5818 5819 5821 5824 5826 5827 5828 5829 5829 5829 5828 5828 5828 5828 5828 5827 5827 5828 5828 5827 5828 5828 5829 5830 5831 5833 5835 5836 5838 5840 5842 5844 5846 5847 5849 5850
5804 5804 5805 5805 5806 5807 5808 5809 5811 5814 5816 5818 5819 5821 5821 5822 5822 5821 5821 5821 5821 5822 5821 5821 5821 5822 5822 5821 5822 5823 5824 5826 5827 5828 5830 5832 5834 5836 5838 5839 5841 5842 5844
5796 5797 5798 5798 5799 5800 5801 5803 5806 5808 5810 5811 5813 5814 5815 5815 5815 5815 5815 5815 5815 5816 5816 5815 5815 5816 5816 5816 5816 5817 5819 5820 5821 5823 5825 5826 5828 5830 5831 5833 5834 5835 5837
5790 5791 5791 5793 5794 5795 5797 5799 5801 5802 5804 5805 5806 5807 5808 5808 5809 5809 5809 5809 5810 5810 5810 5810 5810 5810 5811 5811 5811 5812 5813 5815 5816 5817 5819 5821 5822 5824 5825 5826 5827 5829 5830
5786 5787 5788 5789 5791 5792 5794 5795 5796 5797 5799 5800 5800 5801 5802 5803 5803 5803 5803 5804 5804 5804 5805 5805 5805 5805 5805 5806 5806 5807 5808 5809 5810 5812 5814 5815 5817 5818 5820 5821 5821 5822 5824
5785 5786 5786 5787 5788 5789 5790 5791 5792 5792 5793 5794 5794 5795 5796 5797 5797 5798 5798 5798 5798 5798 5799 5800 5800 5800 5800 5800 5801 5801 5802 5803 5805 5806 5808 5810 5811 5813 5814 5815 5816 5817 5818
5783 5784 5784 5785 5785 5786 5786 5786 5786 5787 5788 5788 5789 5789 5790 5791 5791 5792 5792 5792 5793 5793 5794 5794 5795 5795 5795 5795 5795 5796 5797 5797 5798 5800 5802 5804 5805 5807 5808 5809 5810 5811 5812
5781 5781 5781 5781 5781 5781 5780 5780 5780 5781 5781 5782 5783 5783 5784 5785 5785 5786 5786 5786 5787 5788 5788 5789 5790 5790 5790 5790 5790 5791 5791 5792 5793 5795 5796 5797 5799 5800 5801 5802 5803 5804 5805
5777 5777 5776 5776 5775 5775 5774 5774 5774 5774 5775 5775 5776 5777 5778 5779 5779 5780 5780 5781 5781 5782 5783 5784 5784 5785 5785 5785 5786 5786 5787 5788 5788 5789 5790 5791 5792 5793 5793 5794 5795 5796 5796
5773 5772 5770 5770 5769 5768 5767 5767 5767 5767 5767 5768 5769 5770 5772 5773 5773 5773 5774 5775 5776 5777 5777 5778 5779 5780 5780 5780 5781 5782 5782 5783 5783 5784 5784 5785 5785 5786 5786 5787 5787 5787 5788
5768 5766 5765 5763 5762 5761 5760 5760 5760 5760 5760 5761 5762 5763 5765 5765 5766 5767 5768 5770 5771 5772 5772 5773 5773 5774 5775 5775 5776 5777 5777 5778 5778 5778 5779 5779 5779 5779 5779 5779 5779 5779 5778
5764 5761 5759 5757 5755 5754 5753 5752 5752 5752 5752 5753 5754 5756 5757 5758 5760 5761 5763 5764 5766 5767 5768 5768 5769 5769 5770 5770 5771 5772 5772 5772 5772 5773 5773 5773 5772 5772 5772 5771 5771 5770 5769